Rochester/St. Mary\'s Hospita, MN

7:09 AM CST on November 18, 2017 (GMT -0600)
Rochester/St. Mary\'s Hospita

Weather History for K9MN - November, 2013

Change the Weather History Date:

Wednesday, November 13, 2013

  Actual Average (KRST) Record (KRST)
Temperature  
Mean Temperature 33 °F -  
Max Temperature 45 °F 40 °F 71 °F (1999)
Min Temperature 21 °F 24 °F -4 °F (1986)
Degree Days  
Heating Degree Days 32    
Moisture  
Dew Point 18 °F    
Average Humidity 55    
Maximum Humidity 60    
Minimum Humidity 50    
Precipitation  
Precipitation 0.00 in - - ()
Sea Level Pressure  
Sea Level Pressure 30.15 in    
Wind  
Wind Speed 12 mph (South)    
Max Wind Speed 22 mph    
Max Gust Speed 34 mph    
Visibility 10 miles    
Events      
Averages and records for this station are not official NWS values.
T = Trace of Precipitation, MM = Missing Value Source: NWS Daily Summary

Daily Weather History Graph

Daily Weather History Graph

Search for Another Location

Airport or City:

Trip Planner

Search our weather history database for the weather conditions in past years. The results will help you decide how hot, cold, wet, or windy it might be!

Date:

Astronomy

Nov. 13, 2013 Rise Set
Actual Time 7:02 AM CST 4:45 PM CST
Civil Twilight 6:31 AM CST 5:16 PM CST
Nautical Twilight 5:56 AM CST 5:51 PM CST
Astronomical Twilight 5:22 AM CST 6:25 PM CST
Moon 2:39 PM CST (11/13) 2:48 AM CST (11/13)
Length of Visible Light 10h 44m
Length of Day
9h 42m
Waxing Gibbous, 85% of the Moon is Illuminated
Nov 13
Waxing Gibbous
Nov 17
Full
Nov 25
Last Quarter
Dec 2
New
Dec 9
First Quarter

Hourly Weather History & Observations

Time (CST) Temp. Windchill Dew Point Humidity Pressure Visibility Wind Dir Wind Speed Gust Speed Precip Events Conditions
12:13 AM 21.9 °F 11.7 °F 10.0 °F 60% 30.46 in 10.0 mi SW 9.2 mph 17.3 mph N/A   Clear
12:33 AM 22.1 °F 14.7 °F 9.9 °F 59% 30.46 in 10.0 mi WSW 5.8 mph - N/A   Clear
12:53 AM 22.1 °F 12.8 °F 9.3 °F 58% 30.45 in 10.0 mi SW 8.1 mph - N/A   Clear
1:13 AM 22.1 °F 10.6 °F 9.1 °F 58% 30.44 in 10.0 mi SSW 11.5 mph - N/A   Clear
1:33 AM 22.3 °F 13.0 °F 8.4 °F 55% 30.43 in 10.0 mi SSW 8.1 mph 17.3 mph N/A   Clear
1:53 AM 23.0 °F 13.1 °F 8.1 °F 53% 30.43 in 10.0 mi South 9.2 mph - N/A   Clear
2:13 AM 22.6 °F 13.4 °F 8.1 °F 54% 30.43 in 10.0 mi SSW 8.1 mph - N/A   Clear
2:33 AM 23.0 °F 13.9 °F 7.3 °F 51% 30.41 in 10.0 mi South 8.1 mph 17.3 mph N/A   Clear
2:53 AM 22.6 °F 11.9 °F 7.7 °F 53% 30.41 in 10.0 mi South 10.4 mph - N/A   Clear
3:13 AM 22.1 °F 11.3 °F 7.7 °F 54% 30.39 in 10.0 mi South 10.4 mph - N/A   Clear
3:34 AM 22.6 °F 11.9 °F 7.7 °F 53% 30.38 in 10.0 mi South 10.4 mph 17.3 mph N/A   Clear
3:53 AM 22.1 °F 10.6 °F 7.7 °F 54% 30.36 in 10.0 mi South 11.5 mph 18.4 mph N/A   Clear
4:13 AM 23.0 °F 11.7 °F 7.9 °F 52% 30.36 in 10.0 mi South 11.5 mph 17.3 mph N/A   Clear
4:34 AM 22.3 °F 12.2 °F 8.4 °F 55% 30.35 in 10.0 mi SSE 9.2 mph 17.3 mph N/A   Clear
4:53 AM 22.8 °F 10.4 °F 8.6 °F 55% 30.34 in 10.0 mi South 13.8 mph 18.4 mph N/A   Clear
5:13 AM 22.8 °F 9.9 °F 8.6 °F 55% 30.32 in 10.0 mi South 15.0 mph 21.9 mph N/A   Clear
5:34 AM 23.0 °F 13.9 °F 9.1 °F 55% 30.31 in 10.0 mi South 8.1 mph 18.4 mph N/A   Clear
5:53 AM 23.0 °F 12.4 °F 9.3 °F 56% 30.31 in 10.0 mi South 10.4 mph 16.1 mph N/A   Clear
6:13 AM 23.4 °F 11.6 °F 9.5 °F 55% 30.31 in 10.0 mi South 12.7 mph 18.4 mph N/A   Clear
6:34 AM 23.0 °F 11.1 °F 9.5 °F 56% 30.28 in 10.0 mi South 12.7 mph - N/A   Clear
6:53 AM 23.5 °F 11.8 °F 10.0 °F 56% 30.27 in 10.0 mi South 12.7 mph 17.3 mph N/A   Clear
7:13 AM 23.2 °F 10.3 °F 10.0 °F 57% 30.26 in 10.0 mi South 15.0 mph 20.7 mph N/A   Clear
7:34 AM 23.4 °F 10.1 °F 10.4 °F 58% 30.25 in 10.0 mi South 16.1 mph 23.0 mph N/A   Clear
7:53 AM 24.4 °F 11.5 °F 10.9 °F 57% 30.24 in 10.0 mi South 16.1 mph 24.2 mph N/A   Clear
8:13 AM 25.7 °F 13.1 °F 11.5 °F 55% 30.23 in 10.0 mi South 16.1 mph 25.3 mph N/A   Clear
8:34 AM 27.5 °F 15.9 °F 12.7 °F 54% 30.22 in 10.0 mi SSE 15.0 mph 28.8 mph N/A   Clear
8:53 AM 28.8 °F 15.9 °F 13.6 °F 53% 30.21 in 10.0 mi South 19.6 mph 28.8 mph N/A   Clear
9:13 AM 30.0 °F 19.5 °F 14.5 °F 53% 30.21 in 10.0 mi South 13.8 mph 24.2 mph N/A   Clear
9:34 AM 31.1 °F 19.7 °F 15.6 °F 53% 30.20 in 10.0 mi South 17.3 mph 25.3 mph N/A   Clear
9:53 AM 31.8 °F 21.0 °F 15.8 °F 52% 30.19 in 10.0 mi South 16.1 mph 24.2 mph N/A   Clear
10:13 AM 32.0 °F 20.8 °F 16.7 °F 53% 30.18 in 10.0 mi South 17.3 mph 25.3 mph N/A   Clear
10:34 AM 32.0 °F 21.2 °F 17.6 °F 55% 30.17 in 10.0 mi South 16.1 mph 25.3 mph N/A   Clear
10:53 AM 32.9 °F 22.0 °F 18.3 °F 55% 30.17 in 10.0 mi South 17.3 mph 26.5 mph N/A   Clear
11:13 AM 34.2 °F 25.2 °F 19.6 °F 55% 30.15 in 10.0 mi South 12.7 mph 25.3 mph N/A   Clear
11:34 AM 35.6 °F 26.6 °F 20.8 °F 55% 30.13 in 10.0 mi South 13.8 mph 27.6 mph N/A   Clear
11:53 AM 37.8 °F 27.7 °F 21.9 °F 53% 30.12 in 10.0 mi SSW 19.6 mph 28.8 mph N/A   Clear
12:13 PM 38.3 °F 27.8 °F 22.5 °F 53% 30.11 in 10.0 mi SSW 21.9 mph 29.9 mph N/A   Clear
12:34 PM 39.0 °F 29.6 °F 23.0 °F 53% 30.09 in 10.0 mi SSW 18.4 mph 34.5 mph N/A   Clear
12:53 PM 39.6 °F 30.6 °F 23.7 °F 53% 30.08 in 10.0 mi South 17.3 mph 29.9 mph N/A   Clear
1:13 PM 40.5 °F 31.8 °F 24.8 °F 54% 30.07 in 10.0 mi South 17.3 mph 26.5 mph N/A   Clear
1:34 PM 41.0 °F 32.2 °F 25.2 °F 53% 30.07 in 10.0 mi South 18.4 mph 26.5 mph N/A   Clear
1:53 PM 41.9 °F 34.0 °F 25.7 °F 53% 30.05 in 10.0 mi South 16.1 mph 31.1 mph N/A   Clear
2:14 PM 42.6 °F 34.6 °F 26.4 °F 53% 30.03 in 10.0 mi South 17.3 mph 31.1 mph N/A   Clear
2:33 PM 43.7 °F 36.6 °F 27.0 °F 52% 30.02 in 10.0 mi South 15.0 mph 29.9 mph N/A   Clear
2:53 PM 44.2 °F 35.9 °F 27.0 °F 51% 30.02 in 10.0 mi South 20.7 mph 33.4 mph N/A   Clear
3:14 PM 44.6 °F 37.2 °F 27.3 °F 51% 30.01 in 10.0 mi South 17.3 mph 24.2 mph N/A   Clear
3:33 PM 44.6 °F 36.6 °F 27.5 °F 51% 30.00 in 10.0 mi South 19.6 mph 26.5 mph N/A   Clear
3:53 PM 45.9 °F 38.8 °F 28.0 °F 50% 29.99 in 10.0 mi South 17.3 mph 26.5 mph N/A   Clear
4:14 PM 44.6 °F 37.8 °F 27.9 °F 52% 29.99 in 10.0 mi South 15.0 mph 25.3 mph N/A   Clear
4:33 PM 44.1 °F 37.4 °F 28.0 °F 53% 29.99 in 10.0 mi South 13.8 mph 23.0 mph N/A   Clear
4:53 PM 43.5 °F 36.7 °F 28.0 °F 54% 29.99 in 10.0 mi South 13.8 mph 21.9 mph N/A   Clear
5:14 PM 43.0 °F 36.0 °F 27.5 °F 54% 29.99 in 10.0 mi South 13.8 mph 25.3 mph N/A   Clear
5:33 PM 42.6 °F 36.3 °F 27.5 °F 55% 29.98 in 10.0 mi South 11.5 mph 19.6 mph N/A   Clear
5:53 PM 42.3 °F 36.3 °F 27.1 °F 55% 29.98 in 10.0 mi South 10.4 mph 19.6 mph N/A   Clear
6:14 PM 42.1 °F 35.7 °F 26.6 °F 54% 29.97 in 10.0 mi South 11.5 mph 20.7 mph N/A   Clear
6:33 PM 41.9 °F 35.0 °F 26.6 °F 55% 29.98 in 10.0 mi South 12.7 mph 19.6 mph N/A   Clear
6:53 PM 41.9 °F 33.7 °F 26.2 °F 54% 29.97 in 10.0 mi SSW 17.3 mph 29.9 mph N/A   Clear
7:14 PM 41.5 °F 33.8 °F 26.1 °F 54% 29.98 in 10.0 mi South 15.0 mph 21.9 mph N/A   Clear
7:33 PM 41.4 °F 33.6 °F 25.5 °F 53% 29.97 in 10.0 mi SSW 15.0 mph 24.2 mph N/A   Clear
7:53 PM 41.4 °F 34.3 °F 25.2 °F 53% 29.97 in 10.0 mi SSW 12.7 mph 29.9 mph N/A   Clear
8:14 PM 40.5 °F 33.2 °F 25.0 °F 54% 29.97 in 10.0 mi South 12.7 mph 24.2 mph N/A   Clear
8:33 PM 40.1 °F 33.6 °F 24.8 °F 54% 29.97 in 10.0 mi SSW 10.4 mph 23.0 mph N/A   Clear
8:53 PM 39.6 °F 31.7 °F 24.6 °F 55% 29.97 in 10.0 mi SSW 13.8 mph 23.0 mph N/A   Clear
9:14 PM 39.2 °F 31.6 °F 24.3 °F 55% 29.97 in 10.0 mi South 12.7 mph 21.9 mph N/A   Clear
9:33 PM 39.2 °F 30.8 °F 23.9 °F 54% 29.96 in 10.0 mi SSW 15.0 mph 26.5 mph N/A   Clear
9:53 PM 38.7 °F 30.1 °F 23.7 °F 55% 29.96 in 10.0 mi South 15.0 mph 24.2 mph N/A   Clear
10:14 PM 38.3 °F 30.5 °F 23.9 °F 56% 29.95 in 10.0 mi South 12.7 mph 20.7 mph N/A   Clear
10:33 PM 37.8 °F 30.7 °F 23.9 °F 57% 29.95 in 10.0 mi SW 10.4 mph 19.6 mph N/A   Clear
10:53 PM 37.2 °F 29.6 °F 23.7 °F 58% 29.94 in 10.0 mi South 11.5 mph 20.7 mph N/A   Clear
11:14 PM 36.7 °F 28.4 °F 23.5 °F 59% 29.94 in 10.0 mi South 12.7 mph 21.9 mph N/A   Clear
11:33 PM 36.3 °F 28.4 °F 23.5 °F 60% 29.93 in 10.0 mi South 11.5 mph 20.7 mph N/A   Clear
11:53 PM 36.1 °F 27.7 °F 23.5 °F 60% 29.93 in 10.0 mi SSW 12.7 mph 19.6 mph N/A   Clear